EW4235 Fairfax VA US current weather conditions

sailwx.info

Wind from 235

Air temperature 26.1° C
Dewpoint 23.8° C

Last reported at 2020-Aug-11 01:09 UTC.
Time now 2020-Aug-11 01:31 UTC

Location: N 38°52' W 077°16'.
View on Google Maps.

See reports from other nearby stations

  
Tides and Currents Weather Stations Pressure Air Temp Water Temp Dewpoint Dewpoint Depression Visibility Wind Speed Wind Dir Waves Ship Positions
date/time (UTC)wind fromknots sea level pressurealtimeterstation pressurevisibilityair tempwater tempwave heightnotes
2020-Aug-11 01:09 235 26.1
2020-Aug-11 01:04 235 26.1
2020-Aug-11 00:59 235 26.1
2020-Aug-11 00:54 235 26.7
2020-Aug-11 00:49 235 26.7
2020-Aug-11 00:44 235 26.7
2020-Aug-11 00:39 235 26.7
2020-Aug-11 00:34 235 26.7
2020-Aug-11 00:29 235 27.2
2020-Aug-11 00:24 235 27.2
2020-Aug-11 00:19 235 27.2
2020-Aug-11 00:14 235 27.8
2020-Aug-11 00:09 235 27.8
2020-Aug-11 00:04 235 27.8
2020-Aug-10 23:58 235 28.3
2020-Aug-10 23:53 236 28.3
2020-Aug-10 23:48 236 28.3
2020-Aug-10 23:43 235 28.3
2020-Aug-10 23:38 234 28.3
2020-Aug-10 23:33 234 28.9
2020-Aug-10 23:28 234 28.9
2020-Aug-10 23:23 234 28.9
2020-Aug-10 23:18 236 28.9
2020-Aug-10 23:13 262 28.9
2020-Aug-10 23:08 221 29.4
2020-Aug-10 23:03 148 29.4
2020-Aug-10 22:58 148 29.4
2020-Aug-10 22:53 148 29.4
2020-Aug-10 22:48 241 29.4
2020-Aug-10 22:43 202 29.4
2020-Aug-10 22:38 251 29.4
2020-Aug-10 22:33 242 30.0
2020-Aug-10 22:28 243 30.0
2020-Aug-10 22:23 197 30.6
2020-Aug-10 22:18 188 30.6
2020-Aug-10 22:13 201 31.1
2020-Aug-10 22:08 203 31.1
2020-Aug-10 22:03 227 31.1
2020-Aug-10 21:58 226 31.1
2020-Aug-10 21:53 276 31.1
2020-Aug-10 21:48 358 31.7
2020-Aug-10 21:43 168 31.7
2020-Aug-10 21:38 165 31.7
2020-Aug-10 21:33 233 31.7
2020-Aug-10 21:28 240 31.7
2020-Aug-10 21:23 240 32.2
2020-Aug-10 21:18 259 32.2
2020-Aug-10 21:13 260 32.2
2020-Aug-10 21:08 290 32.2
2020-Aug-10 21:03 297 32.2
2020-Aug-10 20:58 295 32.2
2020-Aug-10 20:53 147 32.2
2020-Aug-10 20:48 147 32.8
2020-Aug-10 20:43 233 32.8
2020-Aug-10 20:37 233 32.8
2020-Aug-10 20:32 233 32.8
2020-Aug-10 20:27 244 32.8
2020-Aug-10 20:22 085 33.3
2020-Aug-10 20:17 058 33.3
2020-Aug-10 20:12 060 33.3
2020-Aug-10 20:07 060 33.3
2020-Aug-10 20:02 043 33.9
2020-Aug-10 19:57 017 33.9
2020-Aug-10 19:52 084 34.4
2020-Aug-10 19:47 103 34.4
2020-Aug-10 19:42 240 34.4
2020-Aug-10 19:37 234 34.4
2020-Aug-10 19:32 221 34.4
2020-Aug-10 19:27 275 34.4
2020-Aug-10 19:22 236 35.0
2020-Aug-10 19:17 058 34.4
2020-Aug-10 19:12 094 34.4
2020-Aug-10 19:07 302 34.4
2020-Aug-10 19:02 221 34.4
2020-Aug-10 18:57 225 33.9
2020-Aug-10 18:52 225 33.9
2020-Aug-10 18:47 219 33.9
2020-Aug-10 18:42 253 33.3
2020-Aug-10 18:37 214 33.3
2020-Aug-10 18:32 263 33.3
2020-Aug-10 18:27 219 33.3
2020-Aug-10 18:22 307 33.3
2020-Aug-10 18:17 219 32.8
2020-Aug-10 18:12 262 32.8
2020-Aug-10 18:07 266 32.8
2020-Aug-10 18:02 260 32.8
2020-Aug-10 17:57 172 33.3
2020-Aug-10 17:52 291 33.3
2020-Aug-10 17:47 063 33.3
2020-Aug-10 17:42 322 32.8
2020-Aug-10 17:37 238 33.3
2020-Aug-10 17:32 218 0 gusting 2 32.8
2020-Aug-10 17:27 240 0 gusting 2 32.8
2020-Aug-10 17:22 266 0 gusting 1 32.8
2020-Aug-10 17:17 209 33.3
2020-Aug-10 17:12 275 33.3
2020-Aug-10 17:07 003 32.8
2020-Aug-10 17:02 077 32.8
2020-Aug-10 16:57 077 32.8
2020-Aug-10 16:52 275 32.2
2020-Aug-10 16:47 278 31.7
2020-Aug-10 16:42 018 31.7
2020-Aug-10 16:37 018 31.7
2020-Aug-10 16:32 282 31.7
2020-Aug-10 16:27 054 31.7
2020-Aug-10 16:21 054 31.7
2020-Aug-10 16:16 066 32.2
2020-Aug-10 16:11 063 31.7
2020-Aug-10 16:06 063 31.7
2020-Aug-10 16:01 062 31.7
2020-Aug-10 15:56 280 31.7
2020-Aug-10 15:51 062 31.7
2020-Aug-10 15:46 062 31.7
2020-Aug-10 15:41 102 31.7
2020-Aug-10 15:36 060 31.1
2020-Aug-10 15:31 060 30.6
2020-Aug-10 15:26 060 0 gusting 2 30.6
2020-Aug-10 15:21 060 0 gusting 3 30.0
2020-Aug-10 15:16 061 0 gusting 3 30.0
2020-Aug-10 15:11 064 30.6
2020-Aug-10 15:06 300 30.6
2020-Aug-10 15:01 300 30.0
2020-Aug-10 14:56 300 29.4
2020-Aug-10 14:51 300 29.4
2020-Aug-10 14:46 299 28.9
2020-Aug-10 14:41 299 28.9
2020-Aug-10 14:36 005 28.9
2020-Aug-10 14:31 044 28.9
2020-Aug-10 14:26 044 28.9
2020-Aug-10 14:21 044 28.3
2020-Aug-10 14:16 044 28.3
2020-Aug-10 14:11 303 28.3
2020-Aug-10 14:06 242 28.3
2020-Aug-10 14:01 242 28.3
2020-Aug-10 13:56 242 28.3
2020-Aug-10 13:51 242 27.8
2020-Aug-10 13:46 242 27.2
2020-Aug-10 13:41 243 26.7
2020-Aug-10 13:36 247 26.7
2020-Aug-10 13:31 247 26.7
2020-Aug-10 13:26 355 26.1
2020-Aug-10 13:21 355 25.6
2020-Aug-10 13:16 295 25.6
2020-Aug-10 13:11 295 25.0
2020-Aug-10 13:06 295 24.4
2020-Aug-10 13:01 295 23.9
2020-Aug-10 12:56 295 23.9
2020-Aug-10 12:50 295 23.9
2020-Aug-10 12:45 295 23.3
2020-Aug-10 12:40 295 23.3
2020-Aug-10 12:35 295 23.3
2020-Aug-10 12:30 295 23.3
2020-Aug-10 12:25 295 22.8
2020-Aug-10 12:20 295 22.8
2020-Aug-10 12:15 295 22.8
2020-Aug-10 12:10 295 22.8
2020-Aug-10 12:05 295 22.2
2020-Aug-10 12:00 295 22.2
2020-Aug-10 11:55 295 22.2
2020-Aug-10 11:50 295 21.7
2020-Aug-10 11:45 295 21.7
2020-Aug-10 11:40 295 21.7
2020-Aug-10 11:35 295 21.7
2020-Aug-10 11:30 295 21.7
2020-Aug-10 11:25 295 21.7
2020-Aug-10 11:20 295 21.1
2020-Aug-10 11:15 295 21.1
2020-Aug-10 11:10 295 21.1
2020-Aug-10 11:05 295 21.1
2020-Aug-10 11:00 295 21.1
2020-Aug-10 10:55 295 21.1
2020-Aug-10 10:50 295 21.1
2020-Aug-10 10:45 295 21.1
2020-Aug-10 10:40 295 21.1
2020-Aug-10 10:35 295 21.1
2020-Aug-10 10:30 295 21.1
2020-Aug-10 10:25 295 21.1
2020-Aug-10 10:20 295 21.1
2020-Aug-10 10:15 295 21.1
2020-Aug-10 10:09 295 21.1
2020-Aug-10 10:04 295 21.1
2020-Aug-10 09:59 295 21.1
2020-Aug-10 09:54 295 21.1
2020-Aug-10 09:49 295 21.1
2020-Aug-10 09:44 295 21.1
2020-Aug-10 09:39 295 21.1
2020-Aug-10 09:34 295 21.1
2020-Aug-10 09:29 295 21.1
2020-Aug-10 09:24 295 21.7
2020-Aug-10 09:19 295 21.7
2020-Aug-10 09:14 295 21.7
2020-Aug-10 09:09 295 21.7
2020-Aug-10 09:04 295 21.7
2020-Aug-10 08:59 295 21.7
2020-Aug-10 08:54 295 21.7
2020-Aug-10 08:44 295 21.7
2020-Aug-10 08:39 295 21.7
2020-Aug-10 08:34 295 21.7
2020-Aug-10 08:29 295 21.7
2020-Aug-10 08:24 295 21.7
2020-Aug-10 08:19 295 21.7
2020-Aug-10 08:14 295 21.7
2020-Aug-10 08:09 295 21.7
2020-Aug-10 08:04 295 21.7
2020-Aug-10 07:59 295 21.7
2020-Aug-10 07:54 295 21.7
2020-Aug-10 07:48 295 21.7
2020-Aug-10 07:43 295 21.7
2020-Aug-10 07:38 295 21.7
2020-Aug-10 07:33 295 21.7
2020-Aug-10 07:28 295 21.7
2020-Aug-10 07:23 295 22.2
2020-Aug-10 07:18 295 22.2
2020-Aug-10 07:13 295 22.2
2020-Aug-10 07:08 295 22.2
2020-Aug-10 07:03 295 22.2
2020-Aug-10 06:58 295 22.2
2020-Aug-10 06:53 295 22.2
2020-Aug-10 06:48 295 22.2
2020-Aug-10 06:43 295 22.2
2020-Aug-10 06:38 295 22.2
2020-Aug-10 06:33 295 22.2
2020-Aug-10 06:28 295 22.8
2020-Aug-10 06:23 295 22.8
2020-Aug-10 06:18 295 22.8
2020-Aug-10 06:13 295 22.8
2020-Aug-10 06:08 295 22.8
2020-Aug-10 06:03 295 22.8
2020-Aug-10 05:58 295 22.8
2020-Aug-10 05:53 295 22.8
2020-Aug-10 05:48 295 22.8
2020-Aug-10 05:43 295 22.8
2020-Aug-10 05:38 295 22.8
2020-Aug-10 05:33 295 22.8
2020-Aug-10 05:28 295 22.8
2020-Aug-10 05:23 295 22.8
2020-Aug-10 05:18 295 22.8
2020-Aug-10 05:13 295 23.3
2020-Aug-10 05:08 295 23.3
2020-Aug-10 05:03 295 23.3
2020-Aug-10 04:58 295 23.3
2020-Aug-10 04:53 295 23.3
2020-Aug-10 04:48 295 23.3
2020-Aug-10 04:43 295 23.3
2020-Aug-10 04:38 295 23.3
2020-Aug-10 04:33 295 23.3
2020-Aug-10 04:28 295 23.3
2020-Aug-10 04:23 295 23.3
2020-Aug-10 04:18 295 23.3
2020-Aug-10 04:13 295 23.3
2020-Aug-10 04:08 295 23.3
2020-Aug-10 04:03 295 23.3
2020-Aug-10 03:57 295 23.3
2020-Aug-10 03:52 295 23.3
2020-Aug-10 03:47 295 23.3
2020-Aug-10 03:42 295 23.3
2020-Aug-10 03:37 295 23.9
2020-Aug-10 03:32 294 23.9
2020-Aug-10 03:27 294 23.9
2020-Aug-10 03:22 294 23.9
2020-Aug-10 03:17 294 23.9
2020-Aug-10 03:12 294 23.9
2020-Aug-10 03:07 294 23.9
2020-Aug-10 03:02 294 23.9
2020-Aug-10 02:57 294 23.9
2020-Aug-10 02:52 294 23.9
2020-Aug-10 02:47 294 23.9
2020-Aug-10 02:42 294 24.4
2020-Aug-10 02:37 294 24.4
2020-Aug-10 02:32 294 24.4
2020-Aug-10 02:27 294 24.4
2020-Aug-10 02:22 294 24.4
2020-Aug-10 02:17 294 24.4
2020-Aug-10 02:12 294 24.4
2020-Aug-10 02:07 294 24.4
2020-Aug-10 02:02 294 25.0
2020-Aug-10 01:57 294 25.0
2020-Aug-10 01:52 294 25.0
2020-Aug-10 01:47 294 25.0
2020-Aug-10 01:42 294 25.0
2020-Aug-10 01:37 294 25.0
2020-Aug-10 01:32 294 25.0
2020-Aug-10 01:27 294 25.0
2020-Aug-10 01:22 294 25.6
2020-Aug-10 01:17 294 25.6
2020-Aug-10 01:12 294 25.6
2020-Aug-10 01:07 294 25.6
2020-Aug-10 01:02 294 25.6
2020-Aug-10 00:56 294 25.6
2020-Aug-10 00:51 294 25.6
2020-Aug-10 00:46 294 25.6
2020-Aug-10 00:41 294 26.1
2020-Aug-10 00:36 294 26.1
2020-Aug-10 00:31 294 26.1
2020-Aug-10 00:26 294 26.1
2020-Aug-10 00:21 294 26.7
2020-Aug-10 00:16 294 26.7
2020-Aug-10 00:11 294 26.7
2020-Aug-10 00:06 294 26.7
2020-Aug-10 00:01 294 26.7
2020-Aug-09 23:56 294 26.7
2020-Aug-09 23:51 294 26.7
2020-Aug-09 23:46 294 26.7
2020-Aug-09 23:41 294 27.2
2020-Aug-09 23:36 294 27.2
2020-Aug-09 23:31 294 27.2
2020-Aug-09 23:26 294 27.2
2020-Aug-09 23:21 294 27.2
2020-Aug-09 23:16 294 27.2
2020-Aug-09 23:11 294 27.2
2020-Aug-09 23:06 294 27.2
2020-Aug-09 23:01 294 27.8
2020-Aug-09 22:56 294 27.8
2020-Aug-09 22:51 293 28.3
2020-Aug-09 22:46 237 28.3
2020-Aug-09 22:41 237 28.3
2020-Aug-09 22:36 237 28.3
2020-Aug-09 22:31 238 28.3
2020-Aug-09 22:26 238 28.9
2020-Aug-09 22:21 238 28.9
2020-Aug-09 22:16 238 28.9
2020-Aug-09 22:11 238 28.9
2020-Aug-09 22:06 238 28.9
2020-Aug-09 22:01 238 28.9
2020-Aug-09 21:55 238 29.4
2020-Aug-09 21:50 238 29.4
2020-Aug-09 21:46 217 29.4
2020-Aug-09 21:40 217 29.4
2020-Aug-09 21:35 217 30.0
2020-Aug-09 21:30 218 30.0
2020-Aug-09 21:25 015 30.0
2020-Aug-09 21:20 015 30.0
2020-Aug-09 21:15 015 30.0
2020-Aug-09 21:10 011 30.0
2020-Aug-09 21:05 011 30.0
2020-Aug-09 21:00 011 30.0
2020-Aug-09 20:55 058 30.6
2020-Aug-09 20:50 276 30.6
2020-Aug-09 20:45 276 30.0
2020-Aug-09 20:40 276 30.0
2020-Aug-09 20:35 145 30.0
2020-Aug-09 20:30 223 30.0
2020-Aug-09 20:25 223 29.4
2020-Aug-09 20:20 223 29.4
2020-Aug-09 20:15 224 29.4
2020-Aug-09 20:10 224 30.0
2020-Aug-09 20:05 224 30.0
2020-Aug-09 20:00 224 30.6
2020-Aug-09 19:55 224 30.6
2020-Aug-09 19:50 219 30.6
2020-Aug-09 19:45 218 30.0
2020-Aug-09 19:40 218 30.0
2020-Aug-09 19:35 218 29.4
2020-Aug-09 19:30 218 29.4
2020-Aug-09 19:25 218 29.4
2020-Aug-09 19:20 218 29.4
2020-Aug-09 19:15 218 29.4
2020-Aug-09 19:10 218 29.4
2020-Aug-09 19:05 218 29.4
2020-Aug-09 19:00 218 29.4
2020-Aug-09 18:55 232 29.4
2020-Aug-09 18:50 234 28.9
2020-Aug-09 18:45 283 28.9
2020-Aug-09 18:40 150 27.8
2020-Aug-09 18:35 198 27.2
2020-Aug-09 18:30 200 26.7
2020-Aug-09 18:25 169 26.7
2020-Aug-09 18:20 203 26.1
2020-Aug-09 18:10 240 26.7
2020-Aug-09 18:05 255 26.7
2020-Aug-09 18:00 255 27.2
2020-Aug-09 17:55 245 27.8
2020-Aug-09 17:50 245 1 gusting 3 28.3
2020-Aug-09 17:45 232 1 gusting 3 28.3
2020-Aug-09 17:40 262 0 gusting 3 29.4
2020-Aug-09 17:35 250 30.0
2020-Aug-09 17:29 259 30.0
2020-Aug-09 17:24 259 30.6
2020-Aug-09 17:19 221 0 gusting 1 31.1
2020-Aug-09 17:14 276 31.1
2020-Aug-09 17:09 253 31.7
2020-Aug-09 17:04 229 31.7
2020-Aug-09 16:59 234 31.1
2020-Aug-09 16:54 271 30.6
2020-Aug-09 16:49 260 0 gusting 2 30.6
2020-Aug-09 16:44 276 0 gusting 1 31.1
2020-Aug-09 16:39 233 30.6
2020-Aug-09 16:34 051 30.0
2020-Aug-09 16:29 252 30.0
2020-Aug-09 16:24 245 30.0
2020-Aug-09 16:19 263 30.0
2020-Aug-09 16:14 247 30.0
2020-Aug-09 16:09 269 30.0
2020-Aug-09 16:04 251 29.4
2020-Aug-09 15:59 307 29.4
2020-Aug-09 15:54 283 29.4
2020-Aug-09 15:49 225 29.4
2020-Aug-09 15:44 234 29.4
2020-Aug-09 15:39 234 28.9
2020-Aug-09 15:34 278 28.9
2020-Aug-09 15:29 267 28.9
2020-Aug-09 15:24 106 28.3
2020-Aug-09 15:19 243 28.3
2020-Aug-09 15:14 243 27.8
2020-Aug-09 15:09 273 27.8
2020-Aug-09 15:04 284 28.3
2020-Aug-09 14:59 284 27.8
2020-Aug-09 14:54 281 27.8
2020-Aug-09 14:49 281 27.8
2020-Aug-09 14:44 281 27.8
2020-Aug-09 14:39 283 27.8
2020-Aug-09 14:34 290 27.8
2020-Aug-09 14:29 230 27.8
2020-Aug-09 14:24 230 27.2
2020-Aug-09 14:19 230 27.2
2020-Aug-09 14:14 230 26.7
2020-Aug-09 14:09 230 26.7
2020-Aug-09 14:04 229 26.7
2020-Aug-09 13:58 210 26.7
2020-Aug-09 13:53 116 26.7
2020-Aug-09 13:48 116 26.7
2020-Aug-09 13:43 092 26.1
2020-Aug-09 13:38 093 25.6
2020-Aug-09 13:33 093 25.6
2020-Aug-09 13:28 093 25.0
2020-Aug-09 13:23 093 24.4
2020-Aug-09 13:18 093 24.4
2020-Aug-09 13:13 093 24.4
2020-Aug-09 13:08 093 23.9
2020-Aug-09 13:03 093 23.9
2020-Aug-09 12:58 093 23.9
2020-Aug-09 12:53 093 23.9
2020-Aug-09 12:48 093 23.3
2020-Aug-09 12:43 093 23.3
2020-Aug-09 12:38 093 23.3
2020-Aug-09 12:33 093 22.8
2020-Aug-09 12:28 093 22.8
2020-Aug-09 12:23 093 22.8
2020-Aug-09 12:18 093 22.2
2020-Aug-09 12:13 093 22.2
2020-Aug-09 12:08 093 22.2
2020-Aug-09 12:03 093 22.2
2020-Aug-09 11:58 093 21.7
2020-Aug-09 11:53 093 21.7
2020-Aug-09 11:48 093 21.7
2020-Aug-09 11:43 093 21.7
2020-Aug-09 11:38 093 21.7
2020-Aug-09 11:33 093 21.1
2020-Aug-09 11:28 093 21.1
2020-Aug-09 11:23 093 21.1
2020-Aug-09 11:18 093 21.1
2020-Aug-09 11:13 093 21.1
2020-Aug-09 11:08 093 21.1
2020-Aug-09 11:03 093 21.1
2020-Aug-09 10:58 093 21.1
2020-Aug-09 10:53 092 21.1
2020-Aug-09 10:48 093 21.1
2020-Aug-09 10:43 093 20.6
2020-Aug-09 10:38 093 20.6
2020-Aug-09 10:32 093 21.1
2020-Aug-09 10:27 093 21.1
2020-Aug-09 10:22 093 21.1
2020-Aug-09 10:17 093 21.1
2020-Aug-09 10:12 093 21.1
2020-Aug-09 10:07 093 21.1
2020-Aug-09 10:02 093 21.1
2020-Aug-09 09:57 093 21.1
2020-Aug-09 09:52 093 21.1
2020-Aug-09 09:47 093 21.1
2020-Aug-09 09:42 093 21.1
2020-Aug-09 09:37 093 21.1
2020-Aug-09 09:32 093 21.1
2020-Aug-09 09:27 093 21.1
2020-Aug-09 09:22 093 21.1
2020-Aug-09 09:17 093 21.1
2020-Aug-09 09:12 093 21.1
2020-Aug-09 09:07 093 21.1
2020-Aug-09 09:02 093 21.1
2020-Aug-09 08:57 093 21.1
2020-Aug-09 08:52 093 21.1
2020-Aug-09 08:47 093 21.7
2020-Aug-09 08:42 093 21.7
2020-Aug-09 08:37 093 21.7
2020-Aug-09 08:32 093 21.7
2020-Aug-09 08:27 093 21.7
2020-Aug-09 08:22 093 21.7
2020-Aug-09 08:17 093 21.7
2020-Aug-09 08:12 092 21.7
2020-Aug-09 08:07 093 21.7
2020-Aug-09 08:02 093 21.7
2020-Aug-09 07:57 093 21.7
2020-Aug-09 07:52 093 21.7
2020-Aug-09 07:47 093 21.7
2020-Aug-09 07:42 093 21.7
2020-Aug-09 07:37 093 22.2
2020-Aug-09 07:32 093 22.2
2020-Aug-09 07:27 093 22.2
2020-Aug-09 07:22 093 22.2
2020-Aug-09 07:17 093 22.2
2020-Aug-09 07:12 093 22.2
2020-Aug-09 07:07 093 22.2
2020-Aug-09 07:02 093 22.2
2020-Aug-09 06:57 093 22.2
2020-Aug-09 06:52 093 21.7
2020-Aug-09 06:47 093 21.7
2020-Aug-09 06:42 093 21.7
2020-Aug-09 06:37 093 21.7
2020-Aug-09 06:32 093 21.7
2020-Aug-09 06:27 093 21.7
2020-Aug-09 06:22 093 21.7
2020-Aug-09 06:17 093 21.7
2020-Aug-09 06:12 093 21.7
2020-Aug-09 06:07 093 21.7
2020-Aug-09 06:02 093 21.7
2020-Aug-09 05:56 092 21.7
2020-Aug-09 05:51 093 21.7
2020-Aug-09 05:46 092 21.7
2020-Aug-09 05:41 093 21.7
2020-Aug-09 05:31 093 21.7
2020-Aug-09 05:26 093 21.7
2020-Aug-09 05:21 093 21.7
2020-Aug-09 05:16 093 21.7
2020-Aug-09 05:11 093 21.7
2020-Aug-09 05:06 093 21.7
2020-Aug-09 05:01 093 21.7
2020-Aug-09 04:56 093 21.7
2020-Aug-09 04:51 093 21.7
2020-Aug-09 04:47 093 21.7
2020-Aug-09 04:41 093 21.7
2020-Aug-09 04:36 093 21.7
2020-Aug-09 04:31 093 21.7
2020-Aug-09 04:26 093 21.7
2020-Aug-09 04:21 093 22.2
2020-Aug-09 04:16 093 22.2
2020-Aug-09 04:11 093 22.2
2020-Aug-09 04:06 093 22.2
2020-Aug-09 04:01 093 22.2
2020-Aug-09 03:56 093 22.2
2020-Aug-09 03:51 093 22.2
2020-Aug-09 03:46 093 22.2
2020-Aug-09 03:41 093 22.2
2020-Aug-09 03:36 093 22.2
2020-Aug-09 03:31 093 22.2
2020-Aug-09 03:26 093 22.2
2020-Aug-09 03:21 093 22.2
2020-Aug-09 03:16 092 22.2
2020-Aug-09 03:11 092 22.2
2020-Aug-09 03:06 092 22.2
2020-Aug-09 03:01 092 22.2
2020-Aug-09 02:56 092 22.8
2020-Aug-09 02:51 092 22.8
2020-Aug-09 02:46 092 22.8
2020-Aug-09 02:41 092 22.8
2020-Aug-09 02:36 092 22.8
2020-Aug-09 02:31 092 22.8
2020-Aug-09 02:26 281 22.8
2020-Aug-09 02:21 281 22.8
2020-Aug-09 02:16 281 22.8
2020-Aug-09 02:11 281 22.8
2020-Aug-09 02:06 281 22.8
2020-Aug-09 02:00 281 22.8
2020-Aug-09 01:55 281 22.8
2020-Aug-09 01:50 281 23.3
2020-Aug-09 01:45 281 23.3
2020-Aug-09 01:40 281 23.3
2020-Aug-09 01:35 281 23.3
2020-Aug-09 01:30 281 23.3
2020-Aug-09 01:25 281 23.3
2020-Aug-09 01:20 281 23.3
2020-Aug-09 01:15 281 23.9
2020-Aug-09 01:10 281 23.9
2020-Aug-09 01:05 281 23.9
2020-Aug-09 01:00 281 23.9